Lid_Strength_Index
2 2 1 1 1 1 1 1 1 1 1 1 2 1 1 0 0 -0 -1 -1 0 -2 -2 -1 -1 -1 -0 -0 -0 0 0 1 1 3 6 6 5 3 3 3 3 2 3
4 2 2 2 2 2 1 1 1 1 1 1 1 0 0 0 -0 -0 -0 -1 -1 -2 -1 -1 -1 -1 -0 -0 0 0 1 2 1 2 3 6 6 5 5 4 3 3 3
4 3 3 2 2 2 2 2 1 1 1 0 0 0 0 0 1 0 0 -0 -1 -1 -1 -1 -1 -1 -1 0 0 -0 0 2 1 -0 2 4 5 4 4 3 3 3 3
3 3 2 3 3 2 2 1 1 1 1 0 1 1 2 2 1 1 0 0 -1 -1 -1 -1 -1 -1 -1 -0 -0 -0 -0 0 2 1 0 1 1 4 5 3 2 3 3
3 3 2 2 3 2 2 2 1 1 1 1 1 1 1 1 0 1 0 -0 -0 -1 -1 -1 -1 -1 -1 -1 -0 -0 -0 0 1 1 1 2 2 3 3 5 5 3 3
3 3 2 2 2 2 2 2 2 2 1 1 1 1 1 1 1 1 1 1 0 -0 -1 -1 -1 -1 -1 -1 -1 -1 -0 -0 0 0 0 2 3 3 6 6 5 4 3
3 3 3 2 2 2 3 2 2 2 1 1 1 1 1 1 1 1 1 1 1 0 0 -0 -0 -0 -1 -1 -1 -0 -0 -0 0 0 1 0 1 3 4 6 7 5 3
4 3 2 2 2 2 3 3 3 2 2 1 1 2 1 1 1 1 0 1 1 0 -0 -0 -1 -1 -1 -1 -1 -0 -0 -0 0 0 0 0 1 2 4 6 8 7 4
4 4 3 3 2 3 3 3 2 2 2 1 1 2 1 1 1 0 0 0 -0 -0 -0 -0 -0 -0 -0 -0 -0 -0 0 -0 -0 0 -0 0 0 1 3 5 6 6 6
5 4 4 3 2 2 2 2 2 2 2 1 1 2 2 1 1 0 0 0 -0 -0 -0 -0 -0 -0 -0 -0 -0 -0 -0 0 0 0 0 0 0 1 4 5 5 6 6
8 6 4 3 2 2 2 2 2 2 2 1 1 1 1 1 0 0 0 0 -0 -0 0 0 -0 0 0 -0 0 0 0 1 0 0 0 0 1 2 4 5 6 6 6
10 9 7 6 3 3 2 2 2 2 2 1 1 1 1 1 1 1 0 -0 0 -0 0 0 0 0 0 0 0 1 0 1 1 1 1 1 1 2 3 5 6 6 6
12 12 11 8 7 3 3 3 3 2 2 2 2 1 1 1 1 1 1 0 0 0 0 0 0 0 0 0 0 0 1 1 1 0 1 1 1 3 3 5 6 6 5
13 14 13 12 8 8 7 3 3 2 2 2 2 2 2 2 1 1 1 1 0 0 0 0 0 0 0 0 0 0 1 1 0 0 0 1 1 2 4 5 6 4 4
13 14 15 13 11 9 9 8 7 2 2 2 2 2 1 1 1 1 1 1 1 1 0 1 0 0 0 0 0 0 1 1 1 1 1 1 4 7 6 5 5 4 6
14 13 13 14 13 10 9 9 9 7 3 3 3 2 2 2 2 2 2 1 1 1 1 1 1 1 1 8 9 3 1 1 1 2 2 3 8 9 10 11 10 8 7
14 14 13 14 13 10 10 10 9 8 8 8 3 2 2 2 2 2 2 2 2 1 1 1 2 2 2 11 10 10 0 1 2 3 4 7 8 10 9 13 12 12 13
14 13 12 12 12 11 10 10 10 10 9 9 9 8 3 2 2 2 2 2 2 2 2 2 1 2 3 11 11 11 1 1 2 3 4 6 8 8 9 10 11 10 9
14 13 12 11 11 11 9 10 11 11 11 10 10 9 9 7 5 4 3 3 2 2 3 3 4 4 4 13 12 10 4 5 5 6 6 6 9 12 11 11 11 10 10
11 13 11 10 11 11 10 10 11 12 11 11 10 10 9 9 10 8 7 7 6 6 6 6 4 7 5 13 13 9 8 9 9 9 10 12 9 13 13 10 10 10 10
11 11 11 11 11 10 10 11 10 11 11 10 11 10 10 11 10 10 9 7 7 8 7 7 8 7 8 10 12 11 6 8 9 10 11 12 14 14 14 12 10 10 10
11 10 11 12 11 11 10 12 12 10 10 10 10 10 11 10 10 10 10 9 8 8 9 8 8 8 9 12 12 11 10 10 9 11 11 13 14 14 14 13 14 14 13
11 11 11 11 11 11 11 12 10 10 11 10 11 10 10 10 11 11 10 10 9 9 9 9 9 10 9 10 12 12 12 12 10 10 12 14 14 14 15 15 15 15 11
11 10 11 12 12 11 11 10 10 10 11 11 10 9 10 10 10 9 11 10 10 10 10 10 10 9 9 9 9 9 10 14 11 14 13 14 15 15 14 15 15 11 10
9 10 10 11 12 11 11 11 11 10 11 10 10 10 9 8 9 9 10 9 9 12 10 10 10 9 10 9 10 11 10 9 12 12 12 13 13 13 13 12 12 11 11
8 9 9 9 10 10 11 11 11 11 11 11 11 10 9 9 8 8 8 13 14 14 13 13 11 11 13 13 12 13 13 13 14 12 13 14 13 13 13 13 13 12 13